• In Italy
  • List of Countries
  • For 7 days
  • Water Temperature
  • Satellite Maps
  • Weather Map
  • Weather Widgets
  • user-avatar
    Login

    Hourly Weather Kerns

    Today, 18 June, Monday

    Time Temperature Precipitation Wind Pressure Humidity
    00:00 +19°C° 0.2 mm 5 mps 763 mmHg 60%
    01:00 +19°C° 0.2 mm 5 mps 763 mmHg 58%
    02:00 +19°C° 0.1 mm 5 mps 763 mmHg 56%
    03:00 +19°C° 0.1 mm 5 mps 763 mmHg 54%
    04:00 +19°C° 0 mm 6 mps 763 mmHg 51%
    05:00 +19°C° 0 mm 6 mps 763 mmHg 51%
    06:00 +19°C° 0 mm 6 mps 763 mmHg 51%
    07:00 +19°C° 0 mm 6 mps 763 mmHg 51%
    08:00 +20°C° 0 mm 6 mps 763 mmHg 48%
    09:00 +22°C° 0 mm 6 mps 763 mmHg 45%
    10:00 +26°C° 0 mm 6 mps 763 mmHg 44%
    11:00 +27°C° 0 mm 6 mps 763 mmHg 42%
    12:00 +28°C° 0 mm 6 mps 762 mmHg 41%
    13:00 +29°C° 0 mm 6 mps 762 mmHg 39%
    14:00 +28°C° 0 mm 6 mps 762 mmHg 41%
    15:00 +27°C° 0 mm 6 mps 761 mmHg 43%
    16:00 +27°C° 0 mm 6 mps 761 mmHg 47%
    17:00 +25°C° 0 mm 5 mps 762 mmHg 53%
    18:00 +21°C° 0 mm 5 mps 762 mmHg 59%
    19:00 +19°C° 0 mm 5 mps 762 mmHg 65%
    20:00 +19°C° 0 mm 5 mps 763 mmHg 64%
    21:00 +17°C° 0 mm 5 mps 763 mmHg 64%
    22:00 +17°C° 0 mm 5 mps 763 mmHg 63%
    23:00 +17°C° 0 mm 5 mps 763 mmHg 63%

    Tomorrow, 19 June, Tuesday

    Time Temperature Precipitation Wind Pressure Humidity
    00:00 +16°C° 0 mm 5 mps 763 mmHg 63%
    01:00 +16°C° 0 mm 6 mps 763 mmHg 62%
    02:00 +16°C° 0 mm 6 mps 763 mmHg 63%
    03:00 +16°C° 0 mm 6 mps 763 mmHg 64%
    04:00 +16°C° 0 mm 6 mps 763 mmHg 65%
    05:00 +15°C° 0 mm 6 mps 764 mmHg 65%
    06:00 +15°C° 0 mm 6 mps 764 mmHg 64%
    07:00 +15°C° 0 mm 6 mps 764 mmHg 64%
    08:00 +17°C° 0 mm 6 mps 764 mmHg 57%
    09:00 +20°C° 0 mm 7 mps 764 mmHg 49%
    10:00 +22°C° 0 mm 7 mps 765 mmHg 42%
    11:00 +23°C° 0 mm 7 mps 764 mmHg 39%
    12:00 +24°C° 0 mm 7 mps 764 mmHg 37%
    13:00 +26°C° 0 mm 6 mps 763 mmHg 34%
    14:00 +26°C° 0 mm 6 mps 763 mmHg 37%
    15:00 +24°C° 0 mm 6 mps 762 mmHg 40%
    16:00 +24°C° 0 mm 6 mps 762 mmHg 42%
    17:00 +21°C° 0 mm 6 mps 763 mmHg 51%
    18:00 +17°C° 0 mm 6 mps 763 mmHg 59%
    19:00 +15°C° 0 mm 5 mps 763 mmHg 68%
    20:00 +14°C° 0 mm 5 mps 764 mmHg 66%
    21:00 +13°C° 0 mm 5 mps 764 mmHg 64%
    22:00 +13°C° 0 mm 5 mps 765 mmHg 62%
    23:00 +13°C° 0 mm 5 mps 764 mmHg 62%

    Day after tomorrow, 20 June, Wednesday

    Time Temperature Precipitation Wind Pressure Humidity
    00:00 +13°C° 0 mm 5 mps 764 mmHg 63%
    01:00 +13°C° 0 mm 5 mps 764 mmHg 63%
    02:00 +13°C° 0 mm 5 mps 764 mmHg 67%
    03:00 +13°C° 0 mm 5 mps 764 mmHg 71%
    04:00 +12°C° 0 mm 5 mps 763 mmHg 76%
    05:00 +12°C° 0 mm 5 mps 763 mmHg 80%
    06:00 +12°C° 0 mm 5 mps 764 mmHg 85%
    07:00 +13°C° 0 mm 5 mps 764 mmHg 90%
    08:00 +15°C° 0 mm 5 mps 764 mmHg 80%
    09:00 +19°C° 0 mm 6 mps 764 mmHg 70%
    10:00 +22°C° 0 mm 6 mps 765 mmHg 61%
    11:00 +23°C° 0 mm 6 mps 764 mmHg 57%
    12:00 +24°C° 0 mm 6 mps 763 mmHg 53%
    13:00 +26°C° 0 mm 6 mps 763 mmHg 50%
    14:00 +26°C° 0 mm 6 mps 763 mmHg 53%
    15:00 +24°C° 0 mm 6 mps 762 mmHg 56%
    16:00 +24°C° 0 mm 6 mps 762 mmHg 58%
    17:00 +22°C° 0 mm 5 mps 762 mmHg 70%
    18:00 +19°C° 0 mm 5 mps 763 mmHg 81%
    19:00 +16°C° 0 mm 5 mps 763 mmHg 92%
    20:00 +15°C° 0 mm 5 mps 764 mmHg 93%
    21:00 +15°C° 0 mm 4 mps 764 mmHg 94%
    22:00 +14°C° 0 mm 4 mps 765 mmHg 95%
    23:00 +14°C° 0 mm 4 mps 765 mmHg 95%

    21 June, Thursday

    Time Temperature Precipitation Wind Pressure Humidity
    00:00 +14°C° 0 mm 4 mps 764 mmHg 94%
    01:00 +13°C° 0 mm 4 mps 764 mmHg 94%
    02:00 +13°C° 0 mm 4 mps 764 mmHg 94%
    03:00 +13°C° 0 mm 4 mps 764 mmHg 93%
    04:00 +13°C° 0 mm 4 mps 763 mmHg 93%
    05:00 +13°C° 0 mm 5 mps 764 mmHg 93%
    06:00 +13°C° 0 mm 5 mps 764 mmHg 94%
    07:00 +13°C° 0 mm 5 mps 764 mmHg 94%
    08:00 +16°C° 0 mm 5 mps 764 mmHg 85%
    09:00 +19°C° 0 mm 5 mps 764 mmHg 76%
    10:00 +22°C° 0 mm 5 mps 765 mmHg 67%
    11:00 +23°C° 0 mm 5 mps 764 mmHg 63%
    12:00 +25°C° 0 mm 5 mps 763 mmHg 59%
    13:00 +26°C° 0 mm 6 mps 763 mmHg 55%
    14:00 +26°C° 0 mm 6 mps 763 mmHg 57%
    15:00 +26°C° 0 mm 6 mps 762 mmHg 60%
    16:00 +24°C° 0 mm 6 mps 762 mmHg 62%
    17:00 +22°C° 0 mm 5 mps 762 mmHg 72%
    18:00 +20°C° 0 mm 5 mps 763 mmHg 82%
    19:00 +17°C° 0 mm 5 mps 763 mmHg 92%
    20:00 +16°C° 0 mm 5 mps 764 mmHg 93%
    21:00 +16°C° 0 mm 5 mps 764 mmHg 94%
    22:00 +16°C° 0 mm 5 mps 765 mmHg 95%
    23:00 +16°C° 0 mm 5 mps 764 mmHg 95%

    22 June, Friday

    Time Temperature Precipitation Wind Pressure Humidity
    00:00 +17°C° 0 mm 4 mps 764 mmHg 95%
    01:00 +17°C° 0 mm 4 mps 764 mmHg 95%
    02:00 +18°C° 0 mm 4 mps 763 mmHg 94%
    03:00 +17°C° 0 mm 5 mps 763 mmHg 94%
    04:00 +19°C° 0 mm 5 mps 762 mmHg 93%
    05:00 +17°C° 0 mm 5 mps 763 mmHg 93%
    06:00 +17°C° 0 mm 5 mps 763 mmHg 94%
    07:00 +17°C° 0 mm 5 mps 763 mmHg 94%
    08:00 +20°C° 0 mm 5 mps 764 mmHg 86%
    09:00 +22°C° 0 mm 5 mps 764 mmHg 78%
    10:00 +23°C° 0 mm 5 mps 764 mmHg 70%
    11:00 +25°C° 0 mm 5 mps 764 mmHg 66%
    12:00 +26°C° 0 mm 5 mps 763 mmHg 61%
    13:00 +27°C° 0 mm 6 mps 762 mmHg 57%
    14:00 +27°C° 0 mm 5 mps 762 mmHg 59%
    15:00 +27°C° 0 mm 5 mps 762 mmHg 61%
    16:00 +26°C° 0 mm 5 mps 762 mmHg 63%
    17:00 +23°C° 0 mm 5 mps 762 mmHg 73%
    18:00 +21°C° 0 mm 5 mps 763 mmHg 84%
    19:00 +19°C° 0 mm 5 mps 763 mmHg 94%
    20:00 +20°C° 0.2 mm 5 mps 764 mmHg 95%
    21:00 +20°C° 0.2 mm 5 mps 764 mmHg 96%
    22:00 +20°C° 0.2 mm 5 mps 764 mmHg 96%
    23:00 +20°C° 0.1 mm 5 mps 764 mmHg 97%

    23 June, Saturday

    Time Temperature Precipitation Wind Pressure Humidity
    00:00 +20°C° 0.1 mm 5 mps 763 mmHg 97%
    01:00 +20°C° 0.1 mm 5 mps 763 mmHg 97%
    02:00 +20°C° 0.1 mm 5 mps 763 mmHg 97%
    03:00 +20°C° 0.1 mm 5 mps 763 mmHg 97%
    04:00 +20°C° 0.1 mm 5 mps 762 mmHg 97%
    05:00 +20°C° 0.1 mm 5 mps 763 mmHg 97%
    06:00 +20°C° 0.1 mm 5 mps 763 mmHg 97%
    07:00 +21°C° 0.1 mm 5 mps 763 mmHg 97%
    08:00 +21°C° 0.2 mm 6 mps 764 mmHg 95%
    09:00 +22°C° 0.2 mm 6 mps 764 mmHg 92%
    10:00 +22°C° 0.2 mm 6 mps 764 mmHg 90%
    11:00 +23°C° 0.1 mm 6 mps 764 mmHg 84%
    12:00 +24°C° 0.1 mm 6 mps 763 mmHg 78%
    13:00 +26°C° 0.1 mm 6 mps 763 mmHg 72%
    14:00 +24°C° 0.2 mm 6 mps 762 mmHg 78%
    15:00 +23°C° 0.2 mm 6 mps 762 mmHg 83%
    16:00 +23°C° 0.2 mm 6 mps 762 mmHg 89%
    17:00 +22°C° 0.1 mm 6 mps 762 mmHg 91%
    18:00 +21°C° 0.1 mm 6 mps 763 mmHg 94%
    19:00 +21°C° 0.1 mm 5 mps 763 mmHg 96%
    20:00 +21°C° 0.2 mm 6 mps 764 mmHg 96%
    21:00 +21°C° 0.2 mm 6 mps 764 mmHg 96%
    22:00 +21°C° 0.2 mm 6 mps 764 mmHg 95%
    23:00 +21°C° 0.2 mm 6 mps 764 mmHg 95%
    Show more